Weather History for KMRH - January, 2013

Change the Weather History Date:

Friday, January 4, 2013

  Actual Average Record
Temperature  
Mean Temperature 43 °F -  
Max Temperature 51 °F 58 °F 75 °F (1950)
Min Temperature 35 °F 38 °F 15 °F (1979)
Degree Days  
Heating Degree Days 22    
Moisture  
Dew Point 31 °F    
Average Humidity 66    
Maximum Humidity 89    
Minimum Humidity 41    
Precipitation  
Precipitation 0.00 in - - ()
Sea Level Pressure  
Sea Level Pressure 30.26 in    
Wind  
Wind Speed 6 mph (WNW)    
Max Wind Speed 13 mph    
Max Gust Speed -    
Visibility 10 miles    
Events      
Averages and records for this station are not official NWS values.
T = Trace of Precipitation, MM = Missing Value Source: NWS Daily Summary

Daily Weather History Graph

Daily Weather History Graph

Search for Another Location

Airport or City:

Trip Planner

Search our weather history database for the weather conditions in past years. The results will help you decide how hot, cold, wet, or windy it might be!

Date:

Astronomy

Jan. 04, 2013 Rise Set
Actual Time 7:14 AM EST 5:09 PM EST
Civil Twilight 6:46 AM EST 5:37 PM EST
Nautical Twilight 6:15 AM EST 6:08 PM EST
Astronomical Twilight 5:44 AM EST 6:39 PM EST
Moon No Moon Rise 11:14 AM EST (1/4)
Length of Visible Light 10h 50m
Length of Day
9h 54m
Waning Gibbous, 55% of the Moon is Illuminated
Jan 4
Waning Gibbous
Jan 4
Last Quarter
Jan 11
New
Jan 18
First Quarter
Jan 26
Full

Hourly Weather History & Observations

Time (EST) Temp. Windchill Dew Point Humidity Pressure Visibility Wind Dir Wind Speed Gust Speed Precip Events Conditions
12:58 AM 35.1 °F - 32.0 °F 89% 30.25 in 10.0 mi Calm Calm - N/A   Clear
1:58 AM 36.0 °F 31.1 °F 33.1 °F 89% 30.25 in 10.0 mi NNW 5.8 mph - N/A   Clear
2:58 AM 35.1 °F 29.3 °F 32.0 °F 89% 30.25 in 9.0 mi NNW 6.9 mph - N/A   Clear
3:58 AM 36.0 °F 29.6 °F 33.1 °F 89% 30.26 in 10.0 mi NNW 8.1 mph - N/A   Clear
4:58 AM 35.1 °F 30.1 °F 32.0 °F 89% 30.26 in 10.0 mi NW 5.8 mph - N/A   Clear
5:58 AM 35.1 °F 30.1 °F 30.9 °F 85% 30.27 in 10.0 mi NW 5.8 mph - N/A   Clear
6:58 AM 35.1 °F 30.1 °F 32.0 °F 89% 30.29 in 8.0 mi NW 5.8 mph - N/A   Clear
7:58 AM 36.0 °F 29.6 °F 32.0 °F 86% 30.30 in 7.0 mi NW 8.1 mph - N/A   Clear
8:58 AM 39.0 °F 33.4 °F 32.0 °F 76% 30.31 in 9.0 mi NNW 8.1 mph - N/A   Clear
9:58 AM 43.0 °F 37.7 °F 30.9 °F 62% 30.32 in 10.0 mi NNW 9.2 mph - N/A   Clear
10:58 AM 46.0 °F 41.4 °F 28.0 °F 50% 30.30 in 10.0 mi NNW 9.2 mph - N/A   Clear
11:58 AM 46.9 °F - 28.0 °F 48% 30.27 in 10.0 mi NW 6.9 mph - N/A   Clear
12:58 PM 50.0 °F - 28.0 °F 43% 30.24 in 10.0 mi West 9.2 mph - N/A   Clear
1:58 PM 50.0 °F - 27.0 °F 41% 30.21 in 10.0 mi WNW 11.5 mph - N/A   Clear
2:58 PM 51.1 °F - 28.0 °F 41% 30.20 in 10.0 mi West 6.9 mph - N/A   Clear
3:58 PM 50.0 °F - 28.9 °F 44% 30.21 in 10.0 mi WSW 8.1 mph - N/A   Clear
4:58 PM 48.0 °F - 30.0 °F 50% 30.20 in 10.0 mi West 9.2 mph - N/A   Clear
5:58 PM 45.0 °F 41.8 °F 30.9 °F 58% 30.21 in 10.0 mi West 5.8 mph - N/A   Clear
6:58 PM 44.1 °F 40.1 °F 30.9 °F 60% 30.24 in 10.0 mi West 6.9 mph - N/A   Clear
7:58 PM 43.0 °F 40.3 °F 30.0 °F 60% 30.25 in 10.0 mi West 4.6 mph - N/A   Clear
8:58 PM 46.0 °F 43.1 °F 35.1 °F 66% 30.26 in 10.0 mi West 5.8 mph - N/A   Overcast
9:58 PM 46.0 °F 40.2 °F 30.9 °F 56% 30.27 in 10.0 mi West 12.7 mph - N/A   Overcast
10:58 PM 44.1 °F 39.0 °F 32.0 °F 63% 30.27 in 10.0 mi WNW 9.2 mph - N/A   Overcast
11:58 PM 42.1 °F 37.7 °F 30.9 °F 65% 30.27 in 10.0 mi West 6.9 mph - N/A   Clear